Japanese version Home page |
Updated on October 12, 2008 |
|
Orbital ElementsThe following orbital elements are taken from MPC 51823: Epoch 2007 Sept. 17.0 TT = JDT 2454360.5 T 2007 Oct. 5.9366 TT MPC q 2.011911 (2000.0) P Q n 0.1396405 Peri. 2.1089 -0.5203181 -0.8480730 a 3.679554 Node 119.2590 +0.7818136 -0.5202694 e 0.453219 Incl. 6.5956 +0.3435645 -0.1004586 P 7.06 From 183 observations 1970-2001, mean residual 0".9.
|
Finding Charts
|
Magnitudes Graphm1 = 10.5 + 5 log d + 15.0 log r(t - 50)
|
The orbital elements are published at the MPC Ephemerides and Orbital Elements.
|